Regional Weather Roundup
Issued by NWS

Home | Current Version | Previous Version | Text Only | Print | Product List | Glossary Off
Versions: 1 2 3 4 5 6 7 8 9 10 11 12 13 14 15 16 17 18 19 20 21 22 23 24 25 26 27 28 29 30 31 32 33 34 35 36 37 38 39 40 41 42 43 44 45 46 47 48 49 50

000
ASUS43 KIND 200059
RWRIN

WEATHER ROUNDUP FOR INDIANA
NATIONAL WEATHER SERVICE INDIANAPOLIS IN
900 PM EDT TUE AUG 19 2014

NOTE: "FAIR" INDICATES FEW OR NO CLOUDS BELOW 12,000 FEET WITH NO
SIGNIFICANT WEATHER AND/OR OBSTRUCTIONS TO VISIBILITY.

* - STATION DOES NOT REPORT WEATHER SUCH AS PRECIPITATION OR FOG.

+ - STATION NOT QUALITY CONTROLLED BY THE NATIONAL WEATHER SERVICE.
    USE DATA WITH CAUTION...ESPECIALLY DEWPOINT AND RELATIVE
    HUMIDITY OBSERVATIONS.

INZ001>003-010>013-019-020-200200-
NORTHWEST INDIANA

CITY           SKY/WX    TMP DP  RH WIND       PRES   REMARKS
GARY /AIRPORT/ PTCLDY    77  68  73 S6        29.74S
KNOX *+        CLOUDY    75  67  77 SW6       29.75S
MONTICELLO +   LGT RAIN  67  64  91 SW6       29.77F
VALPARAISO     MOCLDY    75  67  76 S6        29.76S

$$

LMZ046-743>745-200200-
SOUTHERN LAKE MICHIGAN

STATION/POSITION TIME  TEMP WIND        PRES
                       AIR  DIR/SP/G
                 (UTC) (F)  (DEG/KT/KT) (MB)
BURNS HARBOR     0000   78  190/ 12/ 15   N/A
MICHIGAN CITY    0000   77  180/ 13/ 16   N/A

$$

INZ004-005-014>016-021>024-200200-
NORTH CENTRAL INDIANA

CITY           SKY/WX    TMP DP  RH WIND       PRES   REMARKS
ELKHART        CLEAR     73  64  73 CALM      29.77R
GOSHEN         PTCLDY    73  68  84 S5        29.77R
PERU/GRISSOM   LGT RAIN  70  70 100 SW8       29.79F
SOUTH BEND     PTCLDY    74  65  73 SW5       29.76S
WARSAW +       MOCLDY    72  70  94 CALM      29.77F

$$

INZ006>009-017-018-025>027-200200-
NORTHEAST INDIANA

CITY           SKY/WX    TMP DP  RH WIND       PRES   REMARKS
ANGOLA *+      PTCLDY    70  63  78 S6        29.79R
FORT WAYNE     MOCLDY    71  69  93 CALM      29.80S

$$

INZ028-029-035-036-043>045-051>053-200200-
WEST CENTRAL INDIANA

CITY           SKY/WX    TMP DP  RH WIND       PRES   REMARKS
GREENCASTLE +  PTCLDY    77  72  83 S3        29.81S
LAFAYETTE      CLOUDY    72  67  84 N15G23    29.78R THUNDER
TERRE HAUTE    TSTM      79  74  84 W6        29.79R

$$

INZ030>032-037>040-046>048-054>057-064-065-200200-
CENTRAL INDIANA

CITY           SKY/WX    TMP DP  RH WIND       PRES   REMARKS
INDIANAPOLIS   MOCLDY    76  66  71 SW10      29.81R
-EAGLE CREEK   MOCLDY    77  71  82 S3        29.81R
KOKOMO *+      CLOUDY    70  64  83 S9        29.79F
MT COMFORT *+  CLOUDY    75  68  78 S3        29.82S
SHELBYVILLE    MOCLDY    79  69  71 S6        29.81S
ZIONSVILLE +   MOCLDY    71  66  85 S5        29.81S

$$

INZ033-034-041-042-049-050-058-059-200200-
EAST CENTRAL INDIANA

CITY           SKY/WX    TMP DP  RH WIND       PRES   REMARKS
MUNCIE         MOCLDY    73  68  84 SW3       29.81R

$$

INZ060-061-067>069-081>083-085>088-200200-
SOUTHWEST INDIANA

CITY           SKY/WX    TMP DP  RH WIND       PRES   REMARKS
EVANSVILLE     MOCLDY    83  74  74 S3        29.81S

$$

INZ062-063-066-070>080-084-089>092-200200-
SOUTH CENTRAL AND SOUTHEAST INDIANA

CITY           SKY/WX    TMP DP  RH WIND       PRES   REMARKS
BLOOMINGTON    MOCLDY    79  73  82 S5        29.82R

$$




USA.gov is the U.S. government's official web portal to all federal, state and local government web resources and services.